Flight Track Log - Related Links

Times and Time Zones

All times are in EST time to prevent confusion due to time zone crossing. See the N600AJ flight status page for this flight to view local times or setup timezone preferences in your user account.

Time Position Orientation Groundspeed Altitude Reporting Facility
EST Latitude Longitude Course Direction KTS MPH feet Rate Location/Type
05:10PM 42.7664 -73.8025 346° North 175 201 1,500  Level Boston Center
05:10PM 42.7706 -73.8039 346° North 176 203 1,600 4,500 Climbing Boston Center
05:11PM 42.8003 -73.8300 327° Northwest 189 217 5,100 5,115 Climbing Boston Center
05:11PM 42.8044 -73.8531 284° West 199 229 6,800 4,781 Climbing Boston Center
05:12PM 42.8075 -73.9064 274° West 209 241 10,200 4,171 Climbing Boston Center
05:13PM 42.8186 -74.0100 278° West 281 323 14,100 4,066 Climbing Boston Center
05:14PM 42.8319 -74.1417 278° West 323 372 18,400 2,902 Climbing Boston Center
05:15PM 42.8447 -74.2636 278° West 342 394 20,000 774 Climbing Boston Center
05:16PM 42.8572 -74.3933 278° West 346 398 20,000  Level Boston Center
05:17PM 42.8678 -74.5244 276° West 348 400 20,000  Level Boston Center
05:18PM 42.8814 -74.6544 278° West 348 400 20,000  Level Boston Center
05:19PM 42.8933 -74.7900 277° West 359 413 20,000  Level Boston Center
05:20PM 42.9064 -74.9261 278° West 362 417 20,000  Level Boston Center
05:21PM 42.9178 -75.0608 277° West 358 412 20,000  Level Boston Center
05:22PM 42.9328 -75.2189 277° West 352 405 20,000  Level Boston Center
05:23PM 42.9439 -75.3558 276° West 356 410 20,000  Level Boston Center
05:24PM 42.9564 -75.4928 277° West 362 417 20,000  Level Boston Center
05:25PM 42.9678 -75.6314 276° West 365 420 20,000  Level Boston Center
05:26PM 42.9797 -75.7717 277° West 369 425 20,000 -439 Level Boston Center
05:27PM 42.9900 -75.9086 276° West 364 419 19,100 -496 Descending Boston Center
05:28PM 43.0028 -76.0500 277° West 369 425 19,000 -48 Descending Boston Center
05:29PM 43.0133 -76.1914 276° West 374 430 19,000  Level Boston Center
05:30PM 43.0242 -76.3331 276° West 375 432 19,000  Level Boston Center
05:31PM 43.0353 -76.4750 276° West 377 434 19,000 -192 Level Boston Center
05:33PM 43.0472 -76.6422 276° West 373 429 18,600 -1,248 Descending Cleveland Center
05:33PM 43.0525 -76.7158 276° West 327 376 16,900 -2,806 Descending Cleveland Center
05:34PM 43.0572 -76.7658 277° West 343 395 15,700 -3,000 Descending Cleveland Center
05:34PM 43.0583 -76.7983 273° West 331 381 15,100 -2,903 Descending Cleveland Center
05:35PM 43.0667 -76.8919 277° West 336 387 12,700 -3,049 Descending Cleveland Center
05:35PM 43.0692 -76.9222 276° West 325 374 12,000 -2,226 Descending Cleveland Center
05:36PM 43.0756 -77.0067 276° West 316 364 10,400 -2,000 Descending Cleveland Center
05:36PM 43.0767 -77.0369 273° West 263 303 10,000 -1,645 Descending Cleveland Center
05:37PM 43.0783 -77.1147 272° West 248 285 8,700 -1,475 Descending Cleveland Center
05:37PM 43.0772 -77.1267 263° West 222 255 8,500 -2,032 Descending Cleveland Center
05:38PM 43.0686 -77.2011 261° West 234 269 6,600 -1,967 Descending Cleveland Center
05:38PM 43.0653 -77.2133 250° West 230 265 6,500 -1,548 Descending Cleveland Center
05:39PM 43.0589 -77.2833 263° West 225 259 5,000 -1,600 Descending Cleveland Center
05:39PM 43.0558 -77.2950 250° West 216 249 4,900 -952 Descending Cleveland Center
05:40PM 43.0464 -77.3639 259° West 219 252 4,000 -787 Descending Cleveland Center
05:40PM 43.0425 -77.3753 245° Southwest 222 255 4,100 -97 Climbing Cleveland Center
05:41PM 43.0322 -77.4411 258° West 215 247 3,900 -344 Descending Cleveland Center
05:42PM 43.0214 -77.5017 256° West 176 203 3,400 -639 Descending Cleveland Center
05:43PM 43.0044 -77.5850 254° West 190 219 2,600 -871 Descending Cleveland Center
05:43PM 43.0069 -77.5831 30° Northeast 180 207 2,500 -100 Descending Cleveland Center
05:44PM 43.0156 -77.6431 281° West 147 169 2,500 -97 Level Cleveland Center
05:44PM 43.0150 -77.6425 144° Southeast 171 197 2,400 98 Descending Cleveland Center
05:45PM 43.0283 -77.6869 292° West 118 136 2,600 97 Climbing Cleveland Center
05:45PM 43.0294 -77.6869 360° North 147 169 2,500 -787 Descending Cleveland Center
05:46PM 43.0583 -77.7150 325° Northwest 131 151 1,800 -774 Descending Cleveland Center
05:46PM 43.0583 -77.7147 90° East 135 155 1,700 -900 Descending Cleveland Center
05:47PM 43.0944 -77.6986 18° North 147 169 900 -871 Descending Cleveland Center
05:47PM 43.0950 -77.6983 20° North 137 158 800 -343 Descending Cleveland Center
05:48PM 43.1231 -77.6744 32° Northeast 102 117 500 -290 Descending Cleveland Center

Login

Don't have an account? Register now (free) for customized features, flight alerts, and more!